Regional Weather Roundup
Issued by NWS Little Rock, AR

Home | Current Version | Previous Version | Text Only | Print | Product List | Glossary On
Versions: 1 2 3 4 5 6 7 8 9 10 11 12 13 14 15 16 17 18 19 20 21 22 23 24 25 26 27 28 29 30 31 32 33 34 35 36 37 38 39 40 41 42 43 44 45 46 47 48 49 50
000
ASUS44 KLZK 232105
RWRLZK

WEATHER ROUNDUP FOR ARKANSAS
NATIONAL WEATHER SERVICE LITTLE ROCK AR
400 PM CDT TUE MAY 23 2017

NOTE: "FAIR" INDICATES FEW OR NO CLOUDS BELOW 12,000 FEET WITH NO
SIGNIFICANT WEATHER AND/OR OBSTRUCTIONS TO VISIBILITY.

ARZ001-003-010-029-232200-
NORTHWEST ARKANSAS

CITY           SKY/WX    TMP DP  RH WIND       PRES   REMARKS
FAYETTEVILLE   LGT RAIN  60  58  92 NW9       29.82S
FORT SMITH     CLOUDY    72  52  49 N15       29.79R
HARRISON       LGT RAIN  60  58  92 W6        29.79S
BENTONVILLE    CLOUDY    63  52  67 NW9G16    29.83S
ROGERS         PTSUNNY   63  53  70 NW13G20   29.82F
SILOAM SPGS    CLOUDY    61  52  72 NW12      29.83F
HIGHFILL       CLOUDY    64  54  69 NW14      29.83S
SPRINGDALE     LGT RAIN  63  57  82 W10       29.83S
$$

ARZ004-005-016-232200-
NORTH CENTRAL ARKANSAS

CITY           SKY/WX    TMP DP  RH WIND       PRES   REMARKS
BATESVILLE     MOSUNNY   77  57  50 W6        29.70F
FLIPPIN        PTSUNNY   73  52  46 NW12G20   29.71F
MTN HOME       CLOUDY    71  54  54 VRB6      29.73F
$$

ARZ040-041-232200-
WEST CENTRAL ARKANSAS

CITY           SKY/WX    TMP DP  RH WIND       PRES   REMARKS
MENA           PTSUNNY   73  57  56 NW6       29.80F
MOUNT IDA      MOSUNNY   74  54  49 VRB5      29.76S
$$

ARZ009-017-025-026-028-232200-
NORTHEAST ARKANSAS

CITY           SKY/WX    TMP DP  RH WIND       PRES   REMARKS
JONESBORO      MOSUNNY   73  57  57 CALM      29.71F
NEWPORT        CLOUDY    75  64  68 NE6       29.71F
WALNUT RIDGE   MOSUNNY   73  57  56 CALM      29.70F
BLYTHEVILLE    MOSUNNY   76  53  44 SW5       29.70F
$$

ARZ022-023-033-042-044-232200-
CENTRAL ARKANSAS

CITY           SKY/WX    TMP DP  RH WIND       PRES   REMARKS
LITTLE ROCK    PTSUNNY   78  56  46 NW9       29.72F
CONWAY           N/A     79  55  44 W13       29.70F
SEARCY         CLOUDY    72  64  76 SW5       29.73F
HOT SPRINGS    SUNNY     78  55  44 NW13      29.74F
RUSSELLVILLE   PTSUNNY   75  55  49 W10       29.73F
CLINTON        FAIR      77  54  44 NW8       29.71F
$$

ARZ036-232200-
EAST ARKANSAS

CITY           SKY/WX    TMP DP  RH WIND       PRES   REMARKS
WEST MEMPHIS   CLOUDY    77  52  41 VRB7      29.70F
$$

ARZ050-053-066-070-073-232200-
SOUTHWEST ARKANSAS

CITY           SKY/WX    TMP DP  RH WIND       PRES   REMARKS
ARKADELPHIA      N/A     74  63  68 SW6       29.74F
CAMDEN         MOSUNNY   77  57  50 SW8       29.74F
TEXARKANA      MOSUNNY   75  60  59 VRB5      29.77F
EL DORADO      PTSUNNY   76  62  62 W9        29.77F
DE QUEEN       CLOUDY    75  57  53 NW10      29.75F
$$

ARZ056-057-069-232200-
SOUTHEAST ARKANSAS

CITY           SKY/WX    TMP DP  RH WIND       PRES   REMARKS
PINE BLUFF     MOSUNNY   77  60  55 SW8       29.73F
STUTTGART      MOSUNNY   79  54  41 W10       29.73F
MONTICELLO     CLOUDY    75  61  61 NW3       29.74F

$$





USA.gov is the U.S. government's official web portal to all federal, state and local government web resources and services.